RH
3 3 3 3 3 3 2 2 2 2 2 1 1 1 1 2 2 2 2 2 2 2 2 2 2 2 2 2 3 2 3 3 4 5 5 7 9 11 13 13 12 11
3 3 3 3 3 2 2 2 2 2 2 1 1 1 1 1 1 2 2 2 2 2 2 2 2 2 2 2 2 2 3 3 3 4 4 5 7 8 10 12 12 11
2 2 2 2 2 2 2 2 2 2 2 1 1 1 1 1 1 1 2 2 2 2 2 2 2 2 2 2 2 2 2 2 3 3 4 4 5 6 8 9 10 10
1 1 1 1 1 2 1 1 2 2 2 2 1 1 1 1 1 1 1 1 2 2 2 2 2 2 2 2 2 2 2 2 2 2 3 4 4 5 6 7 9 9
1 1 1 1 1 1 1 2 2 1 2 2 1 1 1 1 1 1 1 1 1 2 2 2 2 2 2 2 2 2 2 2 2 2 2 3 3 4 5 6 7 8
1 1 1 1 1 1 1 1 2 2 2 2 2 2 2 1 2 1 1 2 2 2 2 2 2 2 2 2 2 2 2 2 2 2 2 2 3 3 4 4 6 6
1 1 1 1 1 2 2 1 2 1 1 2 2 1 2 2 2 2 2 2 1 2 2 2 2 2 2 2 2 2 2 2 2 2 2 2 2 3 3 3 4 5
1 1 1 2 1 1 1 1 1 1 1 2 1 1 2 2 2 1 2 2 1 1 2 2 2 2 2 2 2 2 2 2 2 2 2 2 2 2 3 3 3 4
1 2 1 1 1 1 1 1 1 1 2 1 1 2 1 1 2 2 1 2 2 2 2 2 2 2 2 2 2 2 2 2 2 2 2 2 2 2 2 2 3 3
2 2 1 1 2 1 1 1 2 1 2 2 2 2 2 2 2 2 2 2 2 2 2 2 2 2 2 2 2 2 2 2 2 2 2 2 2 2 2 2 2 2
2 2 2 1 1 2 2 1 2 2 2 2 2 2 2 2 2 2 2 2 2 2 2 2 2 2 2 2 2 2 2 2 2 2 2 2 2 2 2 2 2 2
1 1 2 1 1 2 2 2 2 2 2 2 2 2 2 2 2 2 2 1 2 2 2 2 2 2 2 2 2 2 2 2 2 2 2 2 2 2 2 2 2 2
1 1 2 2 2 2 2 2 2 2 2 2 2 2 2 2 2 2 2 2 2 2 2 2 2 2 2 2 2 2 2 2 2 2 2 2 2 2 2 2 2 2
1 2 2 2 2 2 2 2 2 2 2 2 2 2 2 2 2 2 2 2 2 2 2 2 2 2 2 2 2 2 2 2 2 2 2 2 2 2 2 2 2 2
2 2 2 2 2 2 2 2 2 2 2 2 2 2 2 2 2 2 2 2 2 2 2 2 2 2 2 2 2 2 2 2 2 2 2 2 2 2 2 2 2 2
2 2 2 2 2 2 2 2 2 2 2 2 2 2 2 2 2 2 2 2 2 2 2 2 2 2 2 2 2 2 2 2 2 2 2 2 2 2 2 2 2 2
2 2 2 2 2 2 2 2 2 2 2 2 2 2 2 2 2 3 3 2 2 2 2 2 2 2 3 2 2 2 2 2 2 2 2 2 2 3 2 2 2 2
2 2 2 2 2 2 3 2 2 2 2 2 2 2 2 3 2 2 3 3 3 3 2 2 3 3 3 3 3 2 2 2 2 2 2 2 2 2 3 3 3 2
2 2 2 2 2 2 3 3 3 3 3 2 2 3 2 2 3 3 3 3 3 3 3 3 3 3 3 3 3 3 3 3 3 3 3 3 3 2 2 2 3 3
2 2 2 2 2 3 2 2 3 3 3 2 2 2 3 2 3 3 3 3 3 3 3 3 3 3 3 3 3 3 3 3 3 3 3 3 3 3 3 3 2 3
2 2 3 2 2 3 2 2 3 2 2 3 2 2 2 2 2 3 3 3 3 3 3 3 3 3 3 3 3 3 3 3 3 4 3 3 3 3 3 3 3 3
2 2 2 2 2 2 2 2 2 2 2 2 2 2 2 2 2 2 3 3 3 3 3 3 3 3 3 3 3 3 4 3 4 4 4 3 4 3 3 3 3 3
2 2 2 2 2 2 2 2 2 2 2 2 2 3 3 2 3 3 2 3 3 3 3 3 3 3 3 3 3 4 4 3 4 4 4 4 4 4 4 3 3 3
2 2 2 2 2 2 2 2 2 2 2 3 3 3 3 3 3 3 3 3 3 3 3 3 3 3 3 3 4 4 4 3 3 3 4 4 4 4 4 4 4 4
2 2 2 2 2 2 2 2 2 2 2 2 3 3 3 3 3 3 3 3 3 3 3 3 3 3 3 3 3 4 4 3 3 3 3 4 4 4 4 4 4 4
3 3 3 3 2 2 3 2 2 2 2 2 3 3 3 3 3 3 3 3 3 3 3 3 3 3 3 3 3 4 4 4 4 4 4 4 4 4 4 4 4 4
Wind_Speed
66 67 68 71 73 74 75 76 76 77 77 78 78 79 79 81 83 84 85 86 88 90 94 97 100 102 103 104 104 105 106 108 111 114 117 120 124 128 132 134 133 132
63 64 66 68 69 71 72 73 74 75 76 75 75 74 74 74 76 78 81 83 86 88 90 92 95 97 99 101 102 102 103 105 107 110 114 117 120 124 128 131 133 133
60 61 62 64 65 66 67 68 70 72 73 73 73 72 71 71 71 73 75 79 82 85 88 88 90 92 93 95 98 99 100 102 104 107 110 114 116 119 123 127 130 132
56 57 58 59 60 61 63 64 65 67 68 69 70 70 70 70 69 70 71 74 77 81 84 86 87 87 88 89 92 95 97 99 102 104 106 110 113 115 118 122 126 128
53 54 54 55 57 58 59 60 61 62 63 65 66 67 68 68 68 68 68 70 72 76 79 82 84 84 84 84 86 89 92 95 98 101 103 106 109 111 113 116 120 123
52 52 52 53 53 54 55 56 57 58 59 60 61 62 63 64 65 65 66 68 69 72 74 77 80 82 82 82 82 84 87 90 94 97 100 102 106 108 110 111 115 118
50 49 49 50 50 51 52 52 53 55 55 56 57 58 59 60 61 63 64 65 67 69 71 73 75 78 79 80 80 81 82 85 89 92 95 99 103 105 107 108 110 112
47 46 46 47 48 48 49 50 51 52 52 53 54 55 56 57 59 60 61 62 64 65 67 69 71 73 75 77 78 78 79 81 84 88 91 95 98 101 103 105 106 108
44 44 43 44 45 46 47 48 49 49 49 51 51 52 54 55 56 57 58 59 61 63 64 66 67 68 70 73 75 76 77 78 80 83 86 90 93 97 99 101 103 104
41 42 42 42 43 44 45 46 46 46 47 47 48 49 50 52 53 54 56 57 59 60 61 62 63 64 66 68 71 73 75 77 78 79 82 85 88 92 95 97 98 100
38 39 41 41 40 42 43 43 43 44 45 44 45 46 47 49 50 51 53 55 56 57 58 60 61 62 63 65 67 70 72 74 75 76 78 80 82 86 89 91 94 96
35 35 37 39 38 39 41 41 41 42 43 43 43 44 45 47 48 49 50 52 52 54 55 57 58 59 61 62 64 66 68 70 72 74 75 77 79 81 83 86 89 92
32 32 32 34 36 37 38 39 40 41 41 42 43 43 44 45 45 46 46 47 48 50 52 53 54 56 58 59 61 63 65 67 69 71 73 75 76 78 79 81 84 87
28 29 28 30 34 36 36 38 39 39 40 41 42 42 42 42 43 43 43 44 45 46 47 49 51 53 55 56 57 59 61 63 65 68 70 72 74 76 77 79 80 82
25 26 26 27 32 34 35 37 38 39 39 39 39 39 39 39 40 41 41 42 42 43 44 45 48 50 52 53 54 55 57 59 61 64 66 69 71 73 75 77 79 80
23 23 23 26 29 31 33 35 36 36 36 36 36 37 37 37 38 39 39 40 40 41 41 43 44 46 48 49 51 53 55 57 58 61 63 65 67 70 72 74 76 78
23 22 22 24 26 28 29 31 33 32 32 32 33 34 35 36 37 38 38 39 39 39 40 40 41 42 44 46 48 50 52 54 56 58 60 62 64 67 69 71 73 75
23 21 21 22 23 24 26 28 28 29 29 30 30 31 33 34 35 36 37 37 38 38 38 38 39 40 42 44 46 47 49 51 53 55 57 59 62 64 66 68 69 71
21 21 20 20 21 22 23 24 25 26 28 29 29 29 30 31 32 33 34 35 36 37 37 37 37 38 40 42 44 46 47 48 50 51 54 57 59 61 62 64 65 67
21 20 20 20 20 20 21 22 23 24 26 26 27 26 27 28 29 31 32 33 34 35 36 36 36 37 38 40 43 44 46 46 48 49 51 53 55 57 59 60 62 63
21 20 19 19 19 19 19 20 20 22 23 24 24 24 25 26 27 28 29 30 32 33 34 35 35 36 37 38 41 42 44 45 47 49 50 51 53 54 56 57 59 60
20 19 19 18 18 18 18 18 19 20 21 22 23 23 24 25 25 26 27 28 29 31 32 33 33 34 35 37 39 41 43 45 47 48 49 50 51 52 53 55 56 58
20 18 17 17 17 16 16 17 17 18 19 20 21 22 23 23 23 23 24 25 26 28 29 30 31 32 33 35 37 39 41 44 46 47 48 49 49 50 51 52 53 55
20 18 17 16 16 15 15 16 16 16 17 18 18 19 20 21 21 21 22 22 23 24 25 27 28 30 31 33 35 37 40 42 44 45 46 47 47 48 49 50 51 52
21 19 18 17 16 16 16 16 16 16 16 17 17 18 18 19 19 20 20 20 20 21 22 24 25 27 29 30 33 35 37 39 41 42 43 43 44 46 47 48 49 50
21 20 19 18 17 17 16 16 16 16 16 17 17 17 18 18 19 19 19 20 20 20 21 22 23 25 26 28 30 32 34 35 37 38 39 40 41 43 44 46 47 47
Wind_Direction
263 262 261 260 259 259 259 259 258 258 257 256 254 253 251 250 249 250 250 249 248 246 245 245 245 245 245 245 243 242 241 240 239 238 238 236 236 236 239 241 243 243
262 260 259 258 258 258 257 257 258 258 258 258 257 256 253 251 249 248 247 248 248 247 246 245 244 244 244 244 244 243 241 240 239 238 238 237 236 236 237 238 240 242
262 260 259 258 257 257 256 256 256 256 257 257 258 258 256 254 251 248 246 245 246 247 247 246 245 244 243 243 243 243 242 241 240 238 237 237 237 236 236 237 239 240
264 262 260 259 258 257 256 256 255 256 256 256 256 257 256 255 254 251 248 245 244 245 246 247 247 246 244 243 242 242 242 241 240 239 238 237 237 236 235 236 237 239
265 263 262 261 260 259 258 256 256 255 255 255 255 255 255 255 254 253 251 248 245 244 245 246 247 247 246 244 242 242 241 241 240 240 239 238 238 237 236 235 236 238
266 265 263 262 261 259 258 257 256 255 255 254 254 253 253 253 253 252 251 249 247 245 244 244 245 246 247 245 244 242 241 241 240 240 239 238 238 238 237 236 236 236
266 265 264 263 262 261 259 258 257 256 256 254 253 253 252 252 251 250 249 248 246 245 244 243 243 244 245 246 245 243 241 240 240 240 239 239 238 238 238 237 236 236
267 266 264 263 263 262 262 261 259 258 257 256 255 253 252 251 250 250 249 248 247 245 244 243 242 242 243 244 245 244 243 241 240 239 239 239 239 239 238 238 237 236
268 267 266 265 264 263 263 262 261 259 258 257 255 254 252 251 250 249 249 248 247 246 245 244 243 242 242 243 243 244 244 243 241 240 239 239 239 239 239 239 238 237
267 268 267 265 264 264 263 262 261 261 258 256 255 254 253 251 250 248 248 248 247 246 245 244 244 243 243 243 243 243 243 243 242 241 240 239 239 239 240 239 239 238
266 266 266 265 263 263 263 262 261 260 259 257 255 253 252 250 249 247 246 246 246 246 245 244 243 243 242 242 242 242 242 243 243 243 242 241 240 240 240 240 239 238
268 265 265 266 264 262 262 262 261 260 259 259 257 255 252 251 249 248 246 246 245 245 244 244 243 242 242 241 241 241 241 241 242 242 242 242 242 241 240 239 239 239
270 267 265 266 265 263 262 262 261 260 259 258 257 255 253 252 251 250 249 247 246 245 244 244 244 243 242 242 242 241 241 241 241 241 241 241 242 242 241 240 239 238
270 269 266 264 264 263 262 261 260 259 258 257 257 256 255 254 252 250 249 248 246 245 244 243 243 242 242 241 242 242 242 242 241 241 241 241 241 241 241 241 240 240
272 269 266 262 261 262 261 260 260 259 258 258 258 258 258 256 255 252 250 248 247 245 244 243 242 242 241 241 241 241 242 242 242 241 241 241 241 241 241 241 241 241
277 271 265 261 260 261 261 261 261 260 260 259 259 259 258 256 255 253 251 249 247 246 244 243 243 242 242 241 240 240 241 241 241 241 241 241 241 240 240 241 241 241
282 275 267 262 261 261 261 262 263 263 261 258 256 256 255 254 254 253 251 250 248 247 246 244 244 243 242 242 240 240 239 240 240 241 241 241 241 241 240 240 240 241
283 277 271 266 263 262 262 262 263 262 260 256 253 252 252 252 252 252 252 251 250 248 247 246 245 243 243 243 242 241 240 240 240 240 241 242 242 241 241 241 240 240
288 283 278 272 267 264 262 262 262 260 259 257 255 253 252 252 251 250 250 250 250 249 248 246 245 244 243 243 243 242 242 241 241 241 241 242 242 243 242 242 241 240
297 292 287 281 275 270 266 263 263 263 262 261 259 257 255 253 252 251 250 248 248 248 247 246 245 244 243 243 243 243 243 243 243 242 242 242 242 243 243 242 242 241
305 300 294 289 283 278 273 270 267 266 266 266 264 261 258 256 255 253 251 249 248 246 245 245 244 243 242 242 243 243 244 244 244 243 243 242 242 242 242 242 241 241
311 307 302 297 292 287 282 276 272 270 269 268 268 266 263 261 258 255 253 251 249 248 246 245 244 243 242 242 242 242 242 243 244 244 244 244 243 242 242 241 241 241
320 315 311 307 302 297 292 287 281 277 275 273 272 271 269 267 264 260 257 254 252 251 249 248 247 245 244 243 243 243 243 242 243 244 245 245 244 244 243 243 242 242
326 322 319 314 309 303 298 293 289 285 281 278 276 274 273 271 269 266 263 260 257 255 253 251 249 247 246 245 244 244 244 244 244 244 245 246 247 246 246 246 245 244
330 328 324 320 315 310 304 299 295 291 286 283 280 277 274 272 271 269 267 264 261 258 256 253 251 249 247 246 246 245 246 246 247 246 246 246 247 247 248 248 247 247
334 332 328 324 320 315 310 306 302 298 294 290 286 283 280 277 275 273 271 268 264 261 257 254 252 249 247 246 246 246 247 248 249 250 249 247 246 246 247 248 248 249